Date String (YYYY-MM-DD hh:mm:ss) UTC,Instrument flags,absolute air pressure of the measurement (hPa),sample flow rate (lpm),inlet stack bypass flow (lpm),air temperature of the measurement (°C),ambient temperature measured by the external sensor (°C),aerosol sample conditioner tube jacket temperature (°C),OPC LED temperature (°C),internal box temperature (°C),relative humidity of the measurement (%),span deviation,mass concentration of particles derived from Lorenz-Mie calculation of OPC scattering (μg/m³),mass concentration of particles derived from Lorenz-Mie calculation of OPC scattering (μg/m³),mass concentration of particles derived from Lorenz-Mie calculation of OPC scattering (μg/m³)
DateTimeUTC,F1_M11,P_M11,Q1_M11,Q2_M11,T1_M11,T2_M11,T3_M11,T4_M11,T5_M11,U1_M11,ZSPAN_M11,X0_M11,X2_M11,X1_M11
2023-11-09 12:00:00,SystemResetWarning,0833.6,5.00,000.00,020.2,019.3,000.0,028.6,021.6,14.3,0000.0,0004.23,0002.60,0002.32
2023-11-09 12:01:00,SystemResetWarning,0833.7,5.01,000.00,020.2,019.3,000.0,028.6,021.6,14.4,0000.0,0004.21,0002.60,0002.33
2023-11-09 12:02:00,SystemResetWarning,0833.7,4.99,000.00,020.2,019.3,000.0,028.6,021.6,15.0,0000.0,0004.22,0002.61,0002.34
2023-11-09 12:03:00,SystemResetWarning,0833.7,4.99,000.00,020.2,019.3,000.0,028.6,021.7,15.3,0000.0,0003.59,0002.65,0002.36
2023-11-09 12:04:00,SystemResetWarning,0833.7,5.00,000.00,020.2,019.4,000.0,028.6,021.7,15.3,0000.0,0003.45,0002.67,0002.38
2023-11-09 12:05:00,SystemResetWarning,0833.7,5.01,000.00,020.3,019.4,000.0,028.6,021.6,15.2,0000.0,0003.36,0002.67,0002.38
2023-11-09 12:06:00,SystemResetWarning,0833.7,5.01,000.00,020.3,019.4,000.0,028.6,021.7,15.3,0000.0,0003.36,0002.66,0002.37
2023-11-09 12:07:00,SystemResetWarning,0833.6,5.00,000.00,020.3,019.5,000.0,028.6,021.7,15.3,0000.0,0003.50,0002.62,0002.36
2023-11-09 12:08:00,SystemResetWarning,0833.7,5.00,000.00,020.3,019.5,000.0,028.6,021.7,15.3,0000.0,0003.68,0002.63,0002.36
2023-11-09 12:09:00,SystemResetWarning,0833.7,5.00,000.00,020.3,019.5,000.0,028.6,021.7,15.3,0000.0,0003.75,0002.65,0002.36
2023-11-09 12:10:00,SystemResetWarning,0833.7,5.00,000.00,020.3,019.5,000.0,028.6,021.7,15.2,0000.0,0003.69,0002.62,0002.36
2023-11-09 12:11:00,SystemResetWarning,0833.7,5.00,000.00,020.3,019.5,000.0,028.6,021.7,15.1,0000.0,0003.68,0002.61,0002.35
2023-11-09 12:12:00,SystemResetWarning,0833.7,5.00,000.00,020.3,019.5,000.0,028.6,021.7,14.8,0000.0,0003.70,0002.61,0002.34
2023-11-09 12:13:00,SystemResetWarning,0833.7,5.00,000.00,020.3,019.5,000.0,028.6,021.7,14.7,0000.0,0003.65,0002.59,0002.33
2023-11-09 12:14:00,SystemResetWarning,0833.7,5.00,000.00,020.3,019.5,000.0,028.6,021.7,15.0,0000.0,0003.68,0002.58,0002.32
2023-11-09 12:15:00,SystemResetWarning,0833.7,5.00,000.00,020.3,019.5,000.0,028.6,021.6,14.7,0000.0,0003.66,0002.56,0002.31
2023-11-09 12:16:00,SystemResetWarning,0833.7,5.00,000.00,020.3,019.4,000.0,028.6,021.7,14.2,0000.0,0003.59,0002.53,0002.31
2023-11-09 12:17:00,SystemResetWarning,0833.7,5.00,000.00,020.3,019.4,000.0,028.6,021.6,14.1,0000.0,0003.62,0002.55,0002.32
2023-11-09 12:18:00,SystemResetWarning,0833.7,5.00,000.00,020.3,019.4,000.0,028.6,021.6,14.0,0000.0,0003.55,0002.60,0002.33
2023-11-09 12:19:00,SystemResetWarning,0833.7,5.00,000.00,020.3,019.4,000.0,028.6,021.6,13.9,0000.0,0003.38,0002.61,0002.36
2023-11-09 12:20:00,SystemResetWarning,0833.7,4.99,000.00,020.3,019.3,000.0,028.6,021.5,13.8,0000.0,0003.29,0002.60,0002.37
2023-11-09 12:21:00,SystemResetWarning,0833.7,5.00,000.00,020.2,019.3,000.0,028.6,021.5,13.8,0000.0,0003.28,0002.60,0002.37
2023-11-09 12:22:00,SystemResetWarning,0833.7,5.00,000.00,020.2,019.3,000.0,028.6,021.5,13.7,0000.0,0003.35,0002.63,0002.38
2023-11-09 12:23:00,SystemResetWarning,0833.7,5.00,000.00,020.2,019.3,000.0,028.6,021.6,13.8,0000.0,0003.54,0002.68,0002.40
2023-11-09 12:24:00,SystemResetWarning,0833.7,5.00,000.00,020.2,019.3,000.0,028.6,021.5,13.9,0000.0,0003.61,0002.72,0002.43
2023-11-09 12:25:00,SystemResetWarning,0833.7,5.01,000.00,020.2,019.3,000.0,028.6,021.5,13.9,0000.0,0003.62,0002.73,0002.43
2023-11-09 12:26:00,SystemResetWarning,0833.7,5.01,000.00,020.2,019.3,000.0,028.6,021.5,13.9,0000.0,0003.62,0002.77,0002.46
2023-11-09 12:27:00,SystemResetWarning,0833.7,5.00,000.00,020.2,019.3,000.0,028.6,021.6,14.0,0000.0,0003.70,0002.81,0002.48
2023-11-09 12:28:00,SystemResetWarning,0833.7,4.99,000.00,020.2,019.3,000.0,028.6,021.5,13.8,0000.0,0003.87,0002.84,0002.49
2023-11-09 12:29:00,SystemResetWarning,0833.7,4.99,000.00,020.2,019.2,000.0,028.6,021.5,13.9,0000.0,0003.91,0002.84,0002.50
2023-11-09 12:30:00,SystemResetWarning,0833.7,5.01,000.00,020.2,019.3,000.0,028.6,021.5,14.1,0000.0,0003.87,0002.83,0002.50
2023-11-09 12:31:00,SystemResetWarning,0833.7,5.01,000.00,020.2,019.2,000.0,028.6,021.5,13.9,0000.0,0003.87,0002.84,0002.50
2023-11-09 12:32:00,SystemResetWarning,0833.7,5.01,000.00,020.2,019.2,000.0,028.6,021.5,13.8,0000.0,0003.93,0002.85,0002.51
2023-11-09 12:33:00,SystemResetWarning,0833.7,5.00,000.00,020.2,019.2,000.0,028.6,021.5,13.8,0000.0,0003.96,0002.85,0002.51
2023-11-09 12:34:00,SystemResetWarning,0833.7,5.00,000.00,020.2,019.2,000.0,028.6,021.5,13.8,0000.0,0003.84,0002.80,0002.51
2023-11-09 12:35:00,SystemResetWarning,0833.6,4.99,000.00,020.2,019.2,000.0,028.6,021.5,13.7,0000.0,0003.77,0002.78,0002.51
2023-11-09 12:36:00,SystemResetWarning,0833.6,5.00,000.00,020.2,019.2,000.0,028.6,021.5,13.6,0000.0,0004.22,0002.79,0002.50
2023-11-09 12:37:00,SystemResetWarning,0833.6,5.00,000.00,020.2,019.2,000.0,028.6,021.5,13.7,0000.0,0004.58,0002.78,0002.49
2023-11-09 12:38:00,SystemResetWarning,0833.6,5.01,000.00,020.2,019.2,000.0,028.6,021.5,13.6,0000.0,0004.55,0002.75,0002.47
2023-11-09 12:39:00,SystemResetWarning,0833.6,5.01,000.00,020.2,019.2,000.0,028.6,021.4,13.5,0000.0,0004.52,0002.76,0002.47
2023-11-09 12:40:00,SystemResetWarning,0833.7,5.00,000.00,020.1,019.2,000.0,028.6,021.5,13.5,0000.0,0004.29,0002.72,0002.48
2023-11-09 12:41:00,SystemResetWarning,0833.7,5.00,000.00,020.1,019.2,000.0,028.5,021.5,13.5,0000.0,0004.23,0002.70,0002.47
2023-11-09 12:42:00,SystemResetWarning,0833.7,4.99,000.00,020.1,019.2,000.0,028.5,021.5,13.8,0000.0,0004.32,0002.72,0002.48
2023-11-09 12:43:00,SystemResetWarning,0833.7,4.99,000.00,020.1,019.2,000.0,028.5,021.5,14.0,0000.0,0004.24,0002.72,0002.49
2023-11-09 12:44:00,SystemResetWarning,0833.7,5.00,000.00,020.1,019.2,000.0,028.5,021.5,14.2,0000.0,0005.48,0002.74,0002.50
2023-11-09 12:45:00,SystemResetWarning,0833.7,5.00,000.00,020.1,019.2,000.0,028.5,021.4,14.1,0000.0,0005.58,0002.76,0002.51
2023-11-09 12:46:00,SystemResetWarning,0833.6,5.00,000.00,020.1,019.2,000.0,028.5,021.4,14.1,0000.0,0005.57,0002.77,0002.52
2023-11-09 12:47:00,SystemResetWarning,0833.6,5.01,000.00,020.1,019.2,000.0,028.5,021.4,14.3,0000.0,0005.30,0002.76,0002.52
2023-11-09 12:48:00,SystemResetWarning,0833.6,5.00,000.00,020.1,019.1,000.0,028.5,021.4,14.5,0000.0,0004.72,0002.77,0002.54
2023-11-09 12:49:00,SystemResetWarning,0833.6,5.00,000.00,020.1,019.1,000.0,028.5,021.3,14.7,0000.0,0004.75,0002.81,0002.56
2023-11-09 12:50:00,SystemResetWarning,0833.6,5.01,000.00,020.1,019.1,000.0,028.5,021.4,14.8,0000.0,0004.73,0002.81,0002.59
2023-11-09 12:51:00,SystemResetWarning,0833.6,5.00,000.00,020.1,019.1,000.0,028.5,021.4,15.0,0000.0,0004.84,0002.83,0002.61
2023-11-09 12:52:00,SystemResetWarning,0833.6,4.99,000.00,020.1,019.1,000.0,028.5,021.4,15.2,0000.0,0004.97,0002.90,0002.65
2023-11-09 12:53:00,SystemResetWarning,0833.6,4.99,000.00,020.1,019.3,000.0,028.5,021.8,15.3,0000.0,0004.99,0002.92,0002.66
2023-11-09 12:54:00,SystemResetWarning,0833.7,5.01,000.00,020.3,020.0,000.0,028.5,022.3,15.3,0000.0,0004.97,0002.91,0002.67
2023-11-09 12:55:00,SystemResetWarning,0833.7,5.00,000.00,020.4,020.4,000.0,028.6,022.4,15.3,0000.0,0003.72,0002.92,0002.69
2023-11-09 12:56:00,SystemResetWarning,0833.6,4.98,000.00,020.5,020.4,000.0,028.6,022.2,15.4,0000.0,0003.57,0002.93,0002.72
2023-11-09 12:57:00,SystemResetWarning,0833.7,4.99,000.00,020.5,020.3,000.0,028.6,022.2,15.4,0000.0,0003.56,0002.94,0002.74
2023-11-09 12:58:00,SystemResetWarning,0833.7,5.01,000.00,020.5,020.1,000.0,028.6,022.1,14.5,0000.0,0003.61,0002.98,0002.76
2023-11-09 12:59:00,SystemResetWarning,0833.7,5.00,000.00,020.5,020.0,000.0,028.7,021.9,13.7,0000.0,0004.93,0003.04,0002.79
